[[{"header":{"parameterUnit":"m.s-1","parameterCategory":1,"la1":30.2991,"la2":30.254,"lo1":-89.0895,"lo2":-89.0444,"dy":0.0017,"dx":0.0017,"nx":28,"ny":28,"refTime":"2024-05-08T21:00:00:Z","depth":0,"parameterNumber":2,"parameterNumberName":"U-component_of_WINDS"},"data":[0,0,0,0,0,0,0,0,0,0,0,0,0,0,0,0,0,0,0,0,0,0,0,0,0,0,0,0,0,0,0,0,0,0,0,0,0,0,0,0,0,0,0,0,0,0,0,0,0,0,0,0,0,0,0,0,0,0,-0.8513,-0.8512,0,-0.841,-0.8409,-0.8408,-0.8358,-0.8358,-0.8358,-0.8358,-0.825,-0.8248,-0.8245,0,0,0,0,0,0,0,0,0,0,0,0,0,-0.8665,-0.8662,-0.8513,-0.8512,-0.8511,-0.8411,-0.8409,-0.8408,-0.8358,-0.8358,-0.8358,-0.8358,-0.8251,-0.8248,-0.8245,0,0,0,0,0,0,0,0,0,0,0,0,0,-0.8584,-0.8661,-0.8514,-0.8474,-0.8469,-0.8411,-0.8409,-0.8407,-0.8358,-0.8358,-0.8358,-0.8358,-0.8253,-0.8248,-0.8244,-0.8216,0,0,-0.8231,-0.8229,0,0,0,0,0,0,0,0,-0.8589,-0.8578,-0.8481,-0.8477,-0.8471,-0.8397,-0.8423,-0.8343,-0.8358,-0.84,-0.8358,-0.8358,-0.8299,-0.8291,-0.8271,-0.8211,-0.8207,-0.823,-0.8228,-0.8226,-0.8225,0,0,0,0,0,0,0,-0.8594,-0.8583,-0.8472,-0.848,-0.8474,-0.8461,-0.8449,-0.8408,-0.8351,-0.8397,-0.8393,-0.8381,-0.8296,-0.8276,-0.8269,-0.8205,-0.823,-0.8227,-0.8224,-0.8222,-0.8116,-0.8115,0,0,0,0,0,0,-0.8607,-0.8588,-0.8476,-0.8469,-0.8531,-0.8458,-0.8445,-0.8421,-0.8351,-0.834,-0.8382,-0.838,-0.8283,-0.8274,-0.8265,-0.8227,-0.8226,-0.8222,-0.8219,-0.8116,-0.8116,-0.8115,0,0,0,0,0,0,-0.861,-0.8597,-0.848,-0.8527,-0.8512,-0.8455,-0.8428,-0.8419,-0.8398,-0.834,-0.8329,-0.8371,-0.8283,-0.8271,-0.8229,-0.8222,-0.822,-0.8216,-0.8116,-0.8116,-0.8116,-0.8151,0,0,0,0,0,0,-0.8615,-0.8599,-0.8588,-0.8528,-0.8509,-0.8447,-0.8428,-0.8417,-0.8391,-0.8387,-0.8327,-0.8317,-0.8282,-0.8235,-0.8224,-0.8216,-0.8212,-0.8116,-0.8116,-0.8116,-0.815,-0.8152,-0.8154,0,0,0,0,0,-0.862,-0.8602,-0.8588,-0.8575,-0.8495,-0.8446,-0.8436,-0.8397,-0.8391,-0.8379,-0.8342,-0.8319,-0.8225,-0.8231,-0.8219,-0.8209,-0.8117,-0.8116,-0.8116,-0.815,-0.8152,-0.8154,0,0,0,0,0,0,-0.8662,-0.8593,-0.8577,-0.8539,-0.8499,-0.8438,-0.8422,-0.84,-0.8361,-0.8359,-0.8311,-0.8298,-0.826,-0.823,-0.8239,-0.8178,-0.8169,-0.8165,-0.8199,-0.82,-0.8202,-0.821,-0.8209,0,0,0,0,0,-0.8668,-0.8635,-0.8576,-0.8547,-0.8528,-0.8479,-0.8456,-0.843,-0.8386,-0.8369,-0.8328,-0.8286,-0.8247,-0.8222,-0.8183,-0.8146,-0.8132,-0.8133,-0.8135,-0.8137,-0.8134,-0.8112,-0.8112,-0.8114,-0.8114,-0.8114,0,0,-0.8677,-0.8635,-0.8617,-0.8555,-0.8521,-0.8487,-0.8465,-0.843,-0.8404,-0.8363,-0.8321,-0.829,-0.824,-0.82,-0.818,-0.8174,-0.8131,-0.8136,-0.8138,-0.8134,-0.8111,-0.8111,-0.8111,-0.8113,-0.8113,-0.8114,0,0,-0.8678,-0.8643,-0.8615,-0.8582,-0.8531,-0.8498,-0.8492,-0.8434,-0.8412,-0.8369,-0.8337,-0.8305,-0.8239,-0.8205,-0.8179,-0.8166,-0.8143,-0.8154,-0.8163,-0.8142,-0.8141,-0.8141,-0.8136,-0.8134,-0.8152,-0.8152,-0.8153,0,-0.8696,-0.8644,-0.8604,-0.8571,-0.8544,-0.8506,-0.8477,-0.8446,-0.8385,-0.8367,-0.8361,-0.8277,-0.8241,-0.8192,-0.8189,-0.8169,-0.816,-0.8161,-0.8145,-0.8144,-0.8143,-0.8137,-0.8136,-0.8154,-0.8154,-0.8154,-0.8154,0,-0.8669,-0.8633,-0.8617,-0.8559,-0.8531,-0.85,-0.8454,-0.843,-0.8406,-0.8374,-0.833,-0.8285,-0.8236,-0.8223,-0.8199,-0.817,-0.8168,-0.8154,-0.8143,-0.8145,-0.8139,-0.8137,-0.8157,-0.8156,-0.8155,-0.8155,0,0,-0.8692,-0.8613,-0.8608,-0.8581,-0.8522,-0.8493,-0.846,-0.8413,-0.8393,-0.8352,-0.8322,-0.8268,-0.8254,-0.8225,-0.8196,-0.8178,-0.817,-0.8166,-0.8164,-0.8167,-0.8135,-0.8145,-0.8144,-0.8155,-0.8154,-0.8154,-0.8139,0,-0.8684,-0.8624,-0.8587,-0.8541,-0.8508,-0.8471,-0.8443,-0.8403,-0.8372,-0.8338,-0.8303,-0.8265,-0.8251,-0.8233,-0.8213,-0.8175,-0.8162,-0.8176,-0.8126,-0.8125,-0.8139,-0.814,-0.8151,-0.8139,-0.8136,-0.8136,-0.8136,0,-0.8666,-0.8626,-0.8578,-0.8522,-0.8506,-0.8482,-0.8435,-0.8403,-0.8357,-0.8336,-0.8303,-0.8275,-0.8238,-0.8231,-0.8179,-0.8189,-0.8166,-0.8145,-0.8143,-0.8136,-0.813,-0.8133,-0.8135,-0.8133,-0.8131,-0.8132,-0.8132,0,-0.8687,-0.8621,-0.8584,-0.8562,-0.8496,-0.8479,-0.8451,-0.8405,-0.8379,-0.8338,-0.832,-0.8276,-0.8251,-0.8217,-0.8177,-0.8176,-0.8128,-0.8118,-0.8109,-0.811,-0.81,-0.8101,-0.8097,-0.8087,-0.8087,-0.8087,-0.8087,0,-0.8681,-0.8652,-0.8592,-0.8569,-0.8536,-0.8493,-0.8461,-0.843,-0.839,-0.8359,-0.8325,-0.8297,-0.8246,-0.8212,-0.818,-0.8141,-0.8131,-0.8112,-0.8103,-0.8114,-0.8117,-0.8098,-0.8098,-0.8086,-0.8087,-0.8087,-0.8087,0,-0.8698,-0.8657,-0.8614,-0.8555,-0.854,-0.8518,-0.8467,-0.8443,-0.841,-0.8372,-0.8361,-0.8309,-0.8267,-0.8224,-0.8166,-0.8145,-0.8107,-0.8096,-0.8123,-0.8118,-0.8111,-0.8112,-0.8095,-0.809,-0.8084,-0.8084,-0.8084,0,-0.8697,-0.8674,-0.8613,-0.8591,-0.8563,-0.8527,-0.85,-0.8457,-0.8431,-0.8377,-0.8359,-0.8314,-0.8276,-0.821,-0.8167,-0.8123,-0.811,-0.8107,-0.8103,-0.8115,-0.8109,-0.8111,-0.8108,-0.8108,-0.8109,-0.8109,-0.8109,0,-0.8698,-0.8679,-0.8642,-0.8597,-0.8566,-0.8529,-0.8491,-0.8474,-0.8424,-0.8395,-0.8352,-0.8323,-0.8264,-0.822,-0.8171,-0.8141,-0.8116,-0.8111,-0.8106,-0.8117,-0.8133,-0.8123,-0.8126,-0.8111,-0.8111,-0.8111,-0.8111,-0.8111,-0.8705,-0.8683,-0.8637,-0.8596,-0.8563,-0.8528,-0.8502,-0.8467,-0.843,-0.838,-0.8356,-0.8313,-0.8267,-0.8198,-0.8169,-0.8133,-0.8127,-0.812,-0.8118,-0.8117,-0.8119,-0.8139,-0.8124,-0.8124,-0.8124,-0.8124,-0.8124,0,-0.8704,-0.8672,-0.8636,-0.8583,-0.8551,-0.8532,-0.8489,-0.8463,-0.8425,-0.8385,-0.8348,-0.8298,-0.8255,-0.8209,-0.8163,-0.8144,-0.8131,-0.8133,-0.8134,-0.8127,-0.8128,-0.8137,-0.8144,-0.8144,-0.8144,-0.8144,-0.8144,-0.8144,-0.8699,-0.8661,-0.8636,-0.858,-0.8549,-0.8506,-0.8483,-0.845,-0.8418,-0.8364,-0.8328,-0.8298,-0.8255,-0.8206,-0.8165,-0.8153,-0.8137,-0.8142,-0.8126,-0.8128,-0.8127,-0.8125,-0.8133,-0.8139,-0.8139,-0.8127,-0.8127,-0.8127]},{"header":{"parameterUnit":"m.s-1","parameterCategory":1,"la1":30.2991,"la2":30.254,"lo1":-89.0895,"lo2":-89.0444,"dy":0.0017,"dx":0.0017,"nx":28,"ny":28,"refTime":"2024-05-08T21:00:00:Z","depth":0,"parameterNumber":3,"parameterNumberName":"V-component_of_WINDS"},"data":[0,0,0,0,0,0,0,0,0,0,0,0,0,0,0,0,0,0,0,0,0,0,0,0,0,0,0,0,0,0,0,0,0,0,0,0,0,0,0,0,0,0,0,0,0,0,0,0,0,0,0,0,0,0,0,0,0,0,5.3964,5.3965,0,5.4016,5.4017,5.4017,5.4016,5.4016,5.4015,5.4014,5.4062,5.4064,5.4066,0,0,0,0,0,0,0,0,0,0,0,0,0,5.386,5.3862,5.3964,5.3965,5.3965,5.4016,5.4017,5.4017,5.4016,5.4015,5.4015,5.4014,5.4062,5.4064,5.4066,0,0,0,0,0,0,0,0,0,0,0,0,0,5.3908,5.3863,5.3964,5.3971,5.3972,5.4016,5.4017,5.4018,5.4017,5.4015,5.4014,5.4013,5.4061,5.4064,5.4067,5.4105,0,0,5.4076,5.4077,0,0,0,0,0,0,0,0,5.3905,5.3912,5.3969,5.3971,5.3972,5.4009,5.3998,5.4047,5.4017,5.4,5.4014,5.4013,5.4045,5.4049,5.4061,5.4107,5.411,5.4076,5.4078,5.4079,5.408,0,0,0,0,0,0,0,5.3902,5.3909,5.3984,5.397,5.3972,5.397,5.3976,5.4007,5.4027,5.4001,5.4001,5.4007,5.4046,5.4058,5.4062,5.411,5.4076,5.4078,5.408,5.4081,5.4193,5.4195,0,0,0,0,0,0,5.3898,5.3907,5.3983,5.3986,5.3936,5.3973,5.398,5.3998,5.4027,5.4031,5.4008,5.4007,5.4054,5.4059,5.4064,5.4113,5.4079,5.4081,5.4083,5.4192,5.4194,5.4195,0,0,0,0,0,0,5.3895,5.3904,5.3981,5.3947,5.3956,5.3976,5.3997,5.3999,5.4012,5.4033,5.4036,5.4018,5.4053,5.406,5.4096,5.4115,5.4083,5.4085,5.4191,5.4193,5.4194,5.421,0,0,0,0,0,0,5.3892,5.3904,5.3919,5.3947,5.3958,5.4013,5.3998,5.4001,5.4018,5.4017,5.4042,5.4046,5.4053,5.4092,5.4099,5.4118,5.4088,5.4189,5.4192,5.4194,5.4208,5.4213,5.4216,0,0,0,0,0,5.3889,5.392,5.392,5.3929,5.3978,5.4014,5.402,5.403,5.4019,5.4035,5.4048,5.4045,5.4111,5.4095,5.4103,5.4124,5.4188,5.4191,5.4194,5.4206,5.4212,5.4216,0,0,0,0,0,0,5.3891,5.3924,5.3924,5.3965,5.3987,5.4014,5.4034,5.4034,5.4058,5.4056,5.4065,5.4071,5.4107,5.4119,5.41,5.4164,5.4148,5.4153,5.4155,5.416,5.4164,5.4161,5.409,0,0,0,0,0,5.3897,5.3925,5.3951,5.3985,5.3996,5.4013,5.4029,5.4035,5.4057,5.4066,5.4081,5.4102,5.4128,5.4144,5.4169,5.421,5.4216,5.4228,5.4232,5.4235,5.4239,5.4263,5.4269,5.4204,5.4204,5.4204,0,0,5.3908,5.393,5.3946,5.3986,5.4004,5.4032,5.4021,5.405,5.4071,5.4069,5.4106,5.4118,5.4142,5.4181,5.4199,5.4192,5.4258,5.4238,5.4241,5.4243,5.4267,5.4273,5.4279,5.4206,5.4206,5.4205,0,0,5.3944,5.3963,5.3994,5.4013,5.4041,5.4053,5.406,5.4087,5.4096,5.4133,5.4133,5.4157,5.4201,5.4219,5.4233,5.4278,5.4277,5.4286,5.4307,5.4331,5.4336,5.434,5.4358,5.4365,5.4289,5.429,5.429,0,5.3955,5.3999,5.401,5.4041,5.4059,5.4061,5.4093,5.411,5.4144,5.4156,5.4147,5.4204,5.422,5.4265,5.4276,5.4287,5.4296,5.4283,5.4334,5.4339,5.4344,5.4361,5.4367,5.4291,5.4291,5.429,5.429,0,5.4011,5.4042,5.4063,5.41,5.4119,5.4151,5.4166,5.4185,5.4189,5.4201,5.4239,5.4259,5.4288,5.4299,5.4302,5.4345,5.434,5.4333,5.4317,5.4351,5.4367,5.4374,5.4292,5.4292,5.4292,5.4291,0,0,5.4049,5.4093,5.4101,5.4118,5.415,5.4174,5.4205,5.4236,5.4253,5.4276,5.4303,5.4341,5.4336,5.4353,5.4358,5.4378,5.4416,5.4369,5.437,5.4379,5.4466,5.4473,5.448,5.4414,5.4416,5.4417,5.4465,0,5.409,5.4149,5.4161,5.4211,5.424,5.4243,5.4271,5.4293,5.4306,5.4331,5.4344,5.4372,5.4362,5.4372,5.4393,5.4407,5.4434,5.4403,5.444,5.4441,5.4436,5.4488,5.4495,5.4539,5.4471,5.4472,5.4473,0,5.4145,5.4174,5.4228,5.4259,5.4271,5.4296,5.4327,5.4351,5.4377,5.4384,5.4404,5.4408,5.444,5.4423,5.4469,5.4448,5.4463,5.4473,5.4474,5.4479,5.446,5.4496,5.4553,5.4561,5.4483,5.4482,5.4481,0,5.4171,5.4222,5.4262,5.4276,5.4312,5.433,5.4345,5.437,5.4389,5.4415,5.4427,5.4456,5.4472,5.4494,5.4505,5.4491,5.455,5.4533,5.4558,5.4558,5.4571,5.4571,5.4634,5.4578,5.4578,5.4578,5.4578,0,5.4216,5.425,5.4274,5.4299,5.4336,5.4349,5.4386,5.4401,5.4423,5.445,5.4453,5.4478,5.449,5.4517,5.4526,5.4563,5.4569,5.4577,5.4579,5.4578,5.4577,5.4589,5.4587,5.458,5.458,5.4579,5.4579,0,5.4251,5.4269,5.4313,5.4344,5.4353,5.438,5.4406,5.443,5.4443,5.4477,5.4486,5.4506,5.4538,5.4551,5.4589,5.4595,5.4639,5.4637,5.4631,5.4632,5.4657,5.4655,5.4731,5.4742,5.4678,5.4679,5.4679,0,5.428,5.4306,5.4342,5.4362,5.4379,5.4409,5.443,5.4443,5.4464,5.4497,5.4517,5.4549,5.4576,5.4627,5.4644,5.4673,5.4674,5.4699,5.4678,5.4677,5.4677,5.4676,5.468,5.4703,5.4703,5.4704,5.4704,0,5.433,5.4338,5.4368,5.4402,5.4427,5.4454,5.448,5.4495,5.4513,5.4536,5.457,5.4591,5.4632,5.4664,5.4696,5.471,5.4711,5.4711,5.4718,5.4718,5.4714,5.4719,5.4643,5.4709,5.4708,5.4708,5.4708,5.4708,5.4364,5.4389,5.4419,5.4453,5.4474,5.4499,5.4524,5.4542,5.4571,5.4607,5.4613,5.465,5.4675,5.4718,5.4734,5.4762,5.4756,5.4766,5.4769,5.4772,5.4775,5.4709,5.4767,5.4767,5.4767,5.4767,5.4767,0,5.4416,5.4436,5.4467,5.4506,5.4533,5.4532,5.4562,5.4584,5.4617,5.4642,5.467,5.471,5.4742,5.4762,5.4795,5.4814,5.4815,5.4822,5.4821,5.4825,5.4778,5.4769,5.4821,5.4821,5.4821,5.4821,5.482,5.482,5.4446,5.4489,5.4501,5.4555,5.4574,5.4612,5.4629,5.4652,5.4673,5.4718,5.4746,5.476,5.4783,5.4818,5.4847,5.4852,5.4865,5.4873,5.4878,5.4833,5.4828,5.4823,5.4815,5.4875,5.4875,5.4923,5.4923,5.4924]}]]